• In Germany
  • List of Countries
  • For 7 days
  • Water Temperature
  • Satellite Maps
  • Weather Map
  • Weather Widgets
  • user-avatar
    Login

    Hourly Weather Tskhinvali

    Today, 23 May, Wednesday

    Time Temperature Precipitation Wind Pressure Humidity
    00:00 +15°C° 0 mm 2 mps 685 mmHg 69%
    01:00 +15°C° 0 mm 2 mps 685 mmHg 68%
    02:00 +14°C° 0 mm 2 mps 685 mmHg 67%
    03:00 +14°C° 0 mm 2 mps 685 mmHg 64%
    04:00 +15°C° 0 mm 2 mps 685 mmHg 65%
    05:00 +15°C° 0 mm 2 mps 685 mmHg 65%
    06:00 +16°C° 0 mm 2 mps 685 mmHg 65%
    07:00 +18°C° 0 mm 3 mps 686 mmHg 59%
    08:00 +20°C° 0 mm 4 mps 686 mmHg 54%
    09:00 +21°C° 0 mm 5 mps 687 mmHg 49%
    10:00 +22°C° 0 mm 5 mps 686 mmHg 47%
    11:00 +23°C° 0 mm 5 mps 686 mmHg 45%
    12:00 +25°C° 0 mm 5 mps 686 mmHg 43%
    13:00 +25°C° 0 mm 5 mps 686 mmHg 42%
    14:00 +25°C° 0 mm 5 mps 686 mmHg 41%
    15:00 +24°C° 0 mm 6 mps 686 mmHg 39%
    16:00 +23°C° 0 mm 5 mps 685 mmHg 42%
    17:00 +23°C° 0 mm 4 mps 685 mmHg 46%
    18:00 +22°C° 0 mm 3 mps 685 mmHg 49%
    19:00 +20°C° 0 mm 3 mps 685 mmHg 48%
    20:00 +17°C° 0 mm 2 mps 685 mmHg 48%
    21:00 +15°C° 0 mm 2 mps 685 mmHg 47%
    22:00 +15°C° 0 mm 2 mps 684 mmHg 48%
    23:00 +14°C° 0 mm 2 mps 684 mmHg 48%

    Tomorrow, 24 May, Thursday

    Time Temperature Precipitation Wind Pressure Humidity
    00:00 +14°C° 0 mm 2 mps 684 mmHg 49%
    01:00 +14°C° 0 mm 2 mps 684 mmHg 50%
    02:00 +14°C° 0 mm 2 mps 684 mmHg 51%
    03:00 +13°C° 0 mm 2 mps 684 mmHg 52%
    04:00 +14°C° 0 mm 2 mps 684 mmHg 53%
    05:00 +15°C° 0 mm 2 mps 684 mmHg 54%
    06:00 +15°C° 0 mm 2 mps 684 mmHg 55%
    07:00 +18°C° 0 mm 2 mps 684 mmHg 48%
    08:00 +20°C° 0 mm 3 mps 685 mmHg 41%
    09:00 +22°C° 0 mm 4 mps 685 mmHg 34%
    10:00 +23°C° 0 mm 4 mps 685 mmHg 32%
    11:00 +25°C° 0 mm 5 mps 684 mmHg 31%
    12:00 +26°C° 0 mm 5 mps 684 mmHg 29%
    13:00 +26°C° 0 mm 5 mps 684 mmHg 29%
    14:00 +26°C° 0 mm 5 mps 683 mmHg 29%
    15:00 +26°C° 0 mm 5 mps 683 mmHg 30%
    16:00 +25°C° 0 mm 4 mps 682 mmHg 34%
    17:00 +23°C° 0 mm 4 mps 682 mmHg 39%
    18:00 +22°C° 0 mm 3 mps 682 mmHg 43%
    19:00 +20°C° 0 mm 2 mps 681 mmHg 42%
    20:00 +17°C° 0 mm 2 mps 681 mmHg 40%
    21:00 +15°C° 0 mm 1 mps 681 mmHg 38%
    22:00 +15°C° 0 mm 1 mps 681 mmHg 36%
    23:00 +14°C° 0 mm 1 mps 681 mmHg 34%

    Day after tomorrow, 25 May, Friday

    Time Temperature Precipitation Wind Pressure Humidity
    00:00 +14°C° 0 mm 1 mps 681 mmHg 31%
    01:00 +14°C° 0 mm 1 mps 680 mmHg 33%
    02:00 +14°C° 0 mm 1 mps 680 mmHg 34%
    03:00 +13°C° 0 mm 1 mps 680 mmHg 36%
    04:00 +14°C° 0 mm 1 mps 680 mmHg 40%
    05:00 +15°C° 0 mm 1 mps 680 mmHg 44%
    06:00 +16°C° 0 mm 1 mps 680 mmHg 49%
    07:00 +19°C° 0 mm 1 mps 680 mmHg 44%
    08:00 +20°C° 0 mm 2 mps 681 mmHg 40%
    09:00 +24°C° 0 mm 2 mps 681 mmHg 35%
    10:00 +25°C° 0 mm 2 mps 681 mmHg 35%
    11:00 +26°C° 0 mm 3 mps 681 mmHg 34%
    12:00 +27°C° 0 mm 3 mps 681 mmHg 34%
    13:00 +27°C° 0 mm 3 mps 681 mmHg 35%
    14:00 +27°C° 0 mm 3 mps 680 mmHg 36%
    15:00 +27°C° 0 mm 3 mps 680 mmHg 36%
    16:00 +26°C° 0.1 mm 2 mps 680 mmHg 44%
    17:00 +24°C° 0.1 mm 2 mps 680 mmHg 51%
    18:00 +23°C° 0.1 mm 2 mps 680 mmHg 58%
    19:00 +20°C° 0.1 mm 2 mps 680 mmHg 66%
    20:00 +18°C° 0.1 mm 2 mps 680 mmHg 73%
    21:00 +16°C° 0.1 mm 1 mps 680 mmHg 80%
    22:00 +16°C° 0.1 mm 1 mps 680 mmHg 81%
    23:00 +16°C° 0.1 mm 1 mps 680 mmHg 81%

    26 May, Saturday

    Time Temperature Precipitation Wind Pressure Humidity
    00:00 +15°C° 0.1 mm 1 mps 680 mmHg 81%
    01:00 +15°C° 0 mm 1 mps 680 mmHg 80%
    02:00 +15°C° 0 mm 1 mps 680 mmHg 79%
    03:00 +15°C° 0 mm 1 mps 680 mmHg 79%
    04:00 +15°C° 0 mm 1 mps 680 mmHg 78%
    05:00 +16°C° 0 mm 1 mps 680 mmHg 76%
    06:00 +18°C° 0 mm 1 mps 681 mmHg 75%
    07:00 +20°C° 0.1 mm 1 mps 681 mmHg 69%
    08:00 +22°C° 0.1 mm 1 mps 682 mmHg 62%
    09:00 +24°C° 0.1 mm 1 mps 682 mmHg 56%
    10:00 +24°C° 0.4 mm 1 mps 682 mmHg 55%
    11:00 +25°C° 0.4 mm 1 mps 682 mmHg 53%
    12:00 +26°C° 0.4 mm 2 mps 682 mmHg 52%
    13:00 +26°C° 0.6 mm 2 mps 682 mmHg 52%
    14:00 +26°C° 0.6 mm 2 mps 682 mmHg 51%
    15:00 +27°C° 0.6 mm 2 mps 682 mmHg 51%
    16:00 +25°C° 0.5 mm 2 mps 682 mmHg 56%
    17:00 +24°C° 0.5 mm 2 mps 683 mmHg 61%
    18:00 +23°C° 0.5 mm 2 mps 683 mmHg 66%
    19:00 +20°C° 0.2 mm 2 mps 683 mmHg 70%
    20:00 +19°C° 0.2 mm 2 mps 683 mmHg 75%
    21:00 +17°C° 0.2 mm 2 mps 684 mmHg 79%
    22:00 +17°C° 0.1 mm 2 mps 684 mmHg 77%
    23:00 +17°C° 0.1 mm 2 mps 684 mmHg 76%

    27 May, Sunday

    Time Temperature Precipitation Wind Pressure Humidity
    00:00 +16°C° 0.1 mm 2 mps 684 mmHg 74%
    01:00 +16°C° 0 mm 2 mps 684 mmHg 75%
    02:00 +16°C° 0 mm 2 mps 684 mmHg 76%
    03:00 +15°C° 0 mm 2 mps 684 mmHg 77%
    04:00 +16°C° 0 mm 2 mps 684 mmHg 76%
    05:00 +16°C° 0 mm 2 mps 685 mmHg 75%
    06:00 +17°C° 0 mm 2 mps 685 mmHg 74%
    07:00 +18°C° 0 mm 3 mps 685 mmHg 69%
    08:00 +20°C° 0 mm 3 mps 686 mmHg 64%
    09:00 +22°C° 0 mm 4 mps 686 mmHg 59%
    10:00 +22°C° 0 mm 4 mps 686 mmHg 59%
    11:00 +22°C° 0 mm 4 mps 686 mmHg 60%
    12:00 +23°C° 0 mm 5 mps 686 mmHg 61%
    13:00 +22°C° 0.1 mm 5 mps 686 mmHg 63%
    14:00 +22°C° 0.1 mm 5 mps 686 mmHg 65%
    15:00 +21°C° 0.1 mm 5 mps 686 mmHg 67%
    16:00 +20°C° 0 mm 4 mps 686 mmHg 69%
    17:00 +19°C° 0 mm 4 mps 686 mmHg 72%
    18:00 +18°C° 0 mm 4 mps 686 mmHg 74%
    19:00 +17°C° 0 mm 3 mps 686 mmHg 77%
    20:00 +16°C° 0 mm 3 mps 686 mmHg 80%
    21:00 +14°C° 0 mm 3 mps 687 mmHg 83%
    22:00 +13°C° 0 mm 3 mps 687 mmHg 83%
    23:00 +13°C° 0 mm 3 mps 687 mmHg 83%

    28 May, Monday

    Time Temperature Precipitation Wind Pressure Humidity
    00:00 +12°C° 0 mm 3 mps 687 mmHg 83%
    01:00 +12°C° 0 mm 3 mps 686 mmHg 82%
    02:00 +12°C° 0 mm 3 mps 686 mmHg 82%
    03:00 +12°C° 0 mm 3 mps 686 mmHg 82%
    04:00 +14°C° 0 mm 2 mps 686 mmHg 80%
    05:00 +14°C° 0 mm 2 mps 686 mmHg 78%
    06:00 +15°C° 0 mm 2 mps 686 mmHg 75%
    07:00 +17°C° 0 mm 3 mps 686 mmHg 69%
    08:00 +19°C° 0 mm 3 mps 686 mmHg 62%
    09:00 +21°C° 0 mm 3 mps 686 mmHg 56%
    10:00 +22°C° 0 mm 3 mps 686 mmHg 52%
    11:00 +25°C° 0 mm 3 mps 686 mmHg 48%
    12:00 +27°C° 0 mm 3 mps 686 mmHg 44%
    13:00 +27°C° 0 mm 3 mps 686 mmHg 44%
    14:00 +27°C° 0 mm 3 mps 685 mmHg 43%
    15:00 +28°C° 0 mm 3 mps 685 mmHg 43%
    16:00 +26°C° 0.1 mm 2 mps 685 mmHg 50%
    17:00 +25°C° 0.1 mm 2 mps 685 mmHg 57%
    18:00 +24°C° 0.1 mm 1 mps 685 mmHg 64%
    19:00 +22°C° 0.1 mm 1 mps 685 mmHg 69%
    20:00 +21°C° 0.1 mm 1 mps 685 mmHg 74%
    21:00 +19°C° 0.1 mm 1 mps 685 mmHg 79%
    22:00 +19°C° 0 mm 1 mps 685 mmHg 79%
    23:00 +18°C° 0 mm 1 mps 684 mmHg 79%
    Show more